Date String (YYYY-MM-DD hh:mm:ss) UTC,Instrument flags,absolute air pressure of the measurement (hPa),sample flow rate (lpm),inlet stack bypass flow (lpm),air temperature of the measurement (°C),ambient temperature measured by the external sensor (°C),aerosol sample conditioner tube jacket temperature (°C),OPC LED temperature (°C),internal box temperature (°C),relative humidity of the measurement (%),span deviation,mass concentration of particles derived from Lorenz-Mie calculation of OPC scattering (μg/m³),mass concentration of particles derived from Lorenz-Mie calculation of OPC scattering (μg/m³),mass concentration of particles derived from Lorenz-Mie calculation of OPC scattering (μg/m³)
DateTimeUTC,F1_M11,P_M11,Q1_M11,Q2_M11,T1_M11,T2_M11,T3_M11,T4_M11,T5_M11,U1_M11,ZSPAN_M11,X2_M11,X0_M11,X1_M11
2024-05-25 10:00:00,SystemResetWarning,0820.8,5.00,000.00,029.4,028.6,000.0,037.9,031.1,012.3,0000.0,0003.66,0014.91,0002.17
2024-05-25 10:01:00,SystemResetWarning,0820.9,5.00,000.00,029.4,028.5,000.0,037.9,031.1,012.3,0000.0,0003.65,0014.39,0002.17
2024-05-25 10:02:00,SystemResetWarning,0820.8,5.00,000.00,029.4,028.5,000.0,037.9,031.1,012.3,0000.0,0003.67,0014.46,0002.18
2024-05-25 10:03:00,SystemResetWarning,0820.8,5.00,000.00,029.4,028.5,000.0,037.8,031.1,012.3,0000.0,0003.65,0014.35,0002.20
2024-05-25 10:04:00,SystemResetWarning,0820.8,5.00,000.00,029.4,028.5,000.0,037.8,031.1,012.3,0000.0,0003.66,0013.38,0002.22
2024-05-25 10:05:00,SystemResetWarning,0820.8,5.00,000.00,029.4,028.5,000.0,037.8,031.1,012.3,0000.0,0003.61,0013.56,0002.23
2024-05-25 10:06:00,SystemResetWarning,0820.8,5.01,000.00,029.4,028.5,000.0,037.8,031.1,012.3,0000.0,0003.57,0014.15,0002.23
2024-05-25 10:07:00,SystemResetWarning,0820.8,5.00,000.00,029.4,028.5,000.0,037.8,031.0,012.3,0000.0,0003.56,0014.90,0002.25
2024-05-25 10:08:00,SystemResetWarning,0820.8,5.00,000.00,029.4,028.5,000.0,037.8,031.0,012.3,0000.0,0003.55,0014.84,0002.27
2024-05-25 10:09:00,SystemResetWarning,0820.8,5.00,000.00,029.4,028.5,000.0,037.8,031.0,012.3,0000.0,0003.60,0015.09,0002.29
2024-05-25 10:10:00,SystemResetWarning,0820.7,5.00,000.00,029.4,028.5,000.0,037.8,031.0,012.3,0000.0,0003.60,0013.81,0002.30
2024-05-25 10:11:00,SystemResetWarning,0820.8,5.00,000.00,029.4,028.5,000.0,037.8,031.0,012.3,0000.0,0003.60,0013.35,0002.32
2024-05-25 10:12:00,SystemResetWarning,0820.8,5.01,000.00,029.4,028.5,000.0,037.8,031.0,012.3,0000.0,0003.61,0013.51,0002.31
2024-05-25 10:13:00,SystemResetWarning,0820.8,5.00,000.00,029.4,028.5,000.0,037.8,031.0,012.3,0000.0,0003.58,0013.32,0002.28
2024-05-25 10:14:00,SystemResetWarning,0820.7,4.98,000.00,029.4,028.5,000.0,037.8,031.0,012.3,0000.0,0003.56,0012.79,0002.27
2024-05-25 10:15:00,SystemResetWarning,0820.8,5.00,000.00,029.3,028.5,000.0,037.7,031.0,012.3,0000.0,0003.57,0013.27,0002.27
2024-05-25 10:16:00,SystemResetWarning,0820.8,5.00,000.00,029.3,028.5,000.0,037.7,031.0,012.3,0000.0,0003.63,0013.16,0002.28
2024-05-25 10:17:00,SystemResetWarning,0820.8,5.01,000.00,029.3,028.5,000.0,037.7,031.0,012.4,0000.0,0003.66,0012.91,0002.27
2024-05-25 10:18:00,SystemResetWarning,0820.7,5.01,000.00,029.3,028.4,000.0,037.7,031.0,012.3,0000.0,0003.71,0011.53,0002.29
2024-05-25 10:19:00,SystemResetWarning,0820.8,4.99,000.00,029.3,028.4,000.0,037.7,031.0,012.3,0000.0,0003.75,0011.85,0002.29
2024-05-25 10:20:00,SystemResetWarning,0820.7,4.99,000.00,029.3,028.4,000.0,037.7,031.0,012.3,0000.0,0003.76,0012.04,0002.29
2024-05-25 10:21:00,SystemResetWarning,0820.7,4.99,000.00,029.3,028.4,000.0,037.7,031.0,012.3,0000.0,0003.76,0012.03,0002.29
2024-05-25 10:22:00,SystemResetWarning,0820.7,5.00,000.00,029.3,028.4,000.0,037.7,030.9,012.3,0000.0,0003.85,0013.43,0002.30
2024-05-25 10:23:00,SystemResetWarning,0820.7,5.01,000.00,029.3,028.4,000.0,037.7,030.9,012.2,0000.0,0003.89,0014.46,0002.33
2024-05-25 10:24:00,SystemResetWarning,0820.8,5.01,000.00,029.3,028.4,000.0,037.7,030.9,012.3,0000.0,0003.90,0015.02,0002.35
2024-05-25 10:25:00,SystemResetWarning,0820.7,5.00,000.00,029.3,028.4,000.0,037.7,030.9,012.3,0000.0,0003.90,0015.11,0002.37
2024-05-25 10:26:00,SystemResetWarning,0820.7,5.00,000.00,029.3,028.4,000.0,037.7,030.9,012.2,0000.0,0003.89,0014.75,0002.37
2024-05-25 10:27:00,SystemResetWarning,0820.7,5.00,000.00,029.3,028.4,000.0,037.7,030.9,012.2,0000.0,0003.90,0015.18,0002.37
2024-05-25 10:28:00,SystemResetWarning,0820.7,4.99,000.00,029.3,028.4,000.0,037.7,030.9,012.2,0000.0,0003.94,0015.39,0002.38
2024-05-25 10:29:00,SystemResetWarning,0820.8,5.00,000.00,029.2,028.4,000.0,037.7,030.9,012.2,0000.0,0003.93,0015.26,0002.38
2024-05-25 10:30:00,SystemResetWarning,0820.7,5.01,000.00,029.2,028.3,000.0,037.6,030.9,012.2,0000.0,0003.89,0015.11,0002.37
2024-05-25 10:31:00,SystemResetWarning,0820.7,5.00,000.00,029.2,028.3,000.0,037.6,030.9,012.2,0000.0,0003.88,0014.44,0002.38
2024-05-25 10:32:00,SystemResetWarning,0820.7,5.00,000.00,029.2,028.3,000.0,037.6,030.9,012.2,0000.0,0003.82,0013.71,0002.38
2024-05-25 10:33:00,SystemResetWarning,0820.7,4.99,000.00,029.2,028.3,000.0,037.6,030.9,012.3,0000.0,0003.79,0012.76,0002.37
2024-05-25 10:34:00,SystemResetWarning,0820.7,4.98,000.00,029.2,028.3,000.0,037.6,030.9,012.3,0000.0,0003.77,0011.37,0002.38
2024-05-25 10:35:00,SystemResetWarning,0820.7,5.00,000.00,029.2,028.3,000.0,037.6,030.8,012.3,0000.0,0003.79,0011.20,0002.40
2024-05-25 10:36:00,SystemResetWarning,0820.7,5.01,000.00,029.2,028.3,000.0,037.6,030.8,012.2,0000.0,0003.81,0011.46,0002.40
2024-05-25 10:37:00,SystemResetWarning,0820.7,5.01,000.00,029.2,028.3,000.0,037.6,030.8,012.2,0000.0,0003.80,0011.87,0002.39
2024-05-25 10:38:00,SystemResetWarning,0820.6,5.00,000.00,029.2,028.3,000.0,037.6,030.8,012.3,0000.0,0003.74,0011.15,0002.38
2024-05-25 10:39:00,SystemResetWarning,0820.6,4.99,000.00,029.2,028.3,000.0,037.6,030.8,012.3,0000.0,0003.69,0010.38,0002.37
2024-05-25 10:40:00,SystemResetWarning,0820.6,4.99,000.00,029.2,028.3,000.0,037.6,030.8,012.2,0000.0,0003.67,0010.26,0002.35
2024-05-25 10:41:00,SystemResetWarning,0820.6,5.00,000.00,029.2,028.3,000.0,037.6,030.8,012.3,0000.0,0003.64,0010.15,0002.33
2024-05-25 10:42:00,SystemResetWarning,0820.6,5.00,000.00,029.2,028.3,000.0,037.6,030.8,012.3,0000.0,0003.59,0010.02,0002.30
2024-05-25 10:43:00,SystemResetWarning,0820.6,5.00,000.00,029.2,028.3,000.0,037.6,030.8,012.2,0000.0,0003.60,0010.08,0002.30
2024-05-25 10:44:00,SystemResetWarning,0820.6,5.00,000.00,029.1,028.3,000.0,037.5,030.8,012.2,0000.0,0003.58,0010.79,0002.30
2024-05-25 10:45:00,SystemResetWarning,0820.7,5.00,000.00,029.1,028.3,000.0,037.5,030.8,012.2,0000.0,0003.56,0011.13,0002.27
2024-05-25 10:46:00,SystemResetWarning,0820.7,5.00,000.00,029.1,028.3,000.0,037.5,030.8,012.2,0000.0,0003.58,0010.84,0002.25
2024-05-25 10:47:00,SystemResetWarning,0820.7,4.99,000.00,029.1,028.3,000.0,037.5,030.8,012.2,0000.0,0003.59,0010.84,0002.24
2024-05-25 10:48:00,SystemResetWarning,0820.7,5.00,000.00,029.1,028.2,000.0,037.5,030.8,012.2,0000.0,0003.61,0009.64,0002.24
2024-05-25 10:49:00,SystemResetWarning,0820.7,5.00,000.00,029.1,028.2,000.0,037.5,030.8,012.3,0000.0,0003.63,0009.71,0002.23
2024-05-25 10:50:00,SystemResetWarning,0820.7,5.01,000.00,029.1,028.2,000.0,037.5,030.8,012.3,0000.0,0003.65,0009.75,0002.23
2024-05-25 10:51:00,SystemResetWarning,0820.7,5.00,000.00,029.1,028.2,000.0,037.5,030.7,012.4,0000.0,0003.67,0009.88,0002.23
2024-05-25 10:52:00,SystemResetWarning,0820.7,5.01,000.00,029.1,028.2,000.0,037.5,030.7,012.3,0000.0,0003.66,0010.95,0002.23
2024-05-25 10:53:00,SystemResetWarning,0820.7,5.00,000.00,029.1,028.2,000.0,037.5,030.7,012.3,0000.0,0003.71,0011.50,0002.23
2024-05-25 10:54:00,SystemResetWarning,0820.7,4.99,000.00,029.1,028.2,000.0,037.5,030.7,012.3,0000.0,0003.74,0011.61,0002.23
2024-05-25 10:55:00,SystemResetWarning,0820.7,5.00,000.00,029.1,028.2,000.0,037.5,030.7,012.3,0000.0,0003.73,0010.98,0002.23
2024-05-25 10:56:00,SystemResetWarning,0820.8,5.01,000.00,029.1,028.2,000.0,037.5,030.7,012.3,0000.0,0003.71,0010.37,0002.23
2024-05-25 10:57:00,SystemResetWarning,0820.7,5.00,000.00,029.0,028.2,000.0,037.4,030.7,012.3,0000.0,0003.71,0010.40,0002.23
2024-05-25 10:58:00,SystemResetWarning,0820.7,5.01,000.00,029.0,028.2,000.0,037.4,030.7,012.3,0000.0,0003.71,0010.92,0002.23
2024-05-25 10:59:00,SystemResetWarning,0820.7,4.99,000.00,029.0,028.2,000.0,037.4,030.7,012.3,0000.0,0003.69,0011.47,0002.24
